| time (UTC) | temp F | wind direction | speed MPH | gust MPH | rain 1hr in | rain 24hr in | rain mn in | humidity % | barometer mb |
| 20260506195449 | 71 | 172 | 1.0 | 7.0 | 0.00 | 0.00 | 0.00 | 61 | 1021.5 |
| 20260506194945 | 70 | 254 | 2.0 | 7.0 | 0.00 | 0.00 | 0.00 | 61 | 1021.4 |
| 20260506194442 | 72 | 294 | 4.0 | 11.0 | 0.00 | 0.00 | 0.00 | 59 | 1021.2 |
| 20260506193939 | 72 | 284 | 4.0 | 9.0 | 0.00 | 0.00 | 0.00 | 59 | 1021.3 |
| 20260506193436 | 73 | 199 | 1.0 | 3.0 | 0.00 | 0.00 | 0.00 | 56 | 1021.2 |
| 20260506192932 | 73 | 153 | 0.0 | 1.0 | 0.00 | 0.00 | 0.00 | 55 | 1021.4 |
| 20260506192429 | 73 | 91 | 2.0 | 4.0 | 0.00 | 0.00 | 0.00 | 55 | 1021.6 |
| 20260506191926 | 71 | 161 | 2.0 | 6.0 | 0.00 | 0.00 | 0.00 | 55 | 1021.4 |
| 20260506191423 | 73 | 145 | 0.0 | 2.0 | 0.00 | 0.00 | 0.00 | 53 | 1021.6 |
| 20260506190920 | 71 | 133 | 1.0 | 4.0 | 0.00 | 0.00 | 0.00 | 55 | 1021.5 |
| 20260506190416 | 71 | 250 | 2.0 | 6.0 | 0.00 | 0.00 | 0.00 | 54 | 1021.6 |
| 20260506185913 | 71 | 64 | 0.0 | 4.0 | 0.00 | 0.00 | 0.00 | 54 | 1021.6 |
| 20260506185410 | 71 | 263 | 6.0 | 7.0 | 0.00 | 0.00 | 0.00 | 52 | 1021.7 |
| 20260506184907 | 70 | 226 | 1.0 | 3.0 | 0.00 | 0.00 | 0.00 | 54 | 1021.8 |
| 20260506184404 | 70 | 32 | 0.0 | 3.0 | 0.00 | 0.00 | 0.00 | 55 | 1021.9 |
| 20260506183902 | 70 | 36 | 2.0 | 7.0 | 0.00 | 0.00 | 0.00 | 55 | 1021.8 |
| 20260506183356 | 70 | 267 | 2.0 | 3.0 | 0.00 | 0.00 | 0.00 | 55 | 1021.7 |
| 20260506182854 | 70 | 296 | 3.0 | 7.0 | 0.00 | 0.00 | 0.00 | 55 | 1021.9 |
| 20260506182351 | 71 | 189 | 3.0 | 4.0 | 0.00 | 0.00 | 0.00 | 55 | 1021.7 |
| 20260506181848 | 70 | 78 | 0.0 | 3.0 | 0.00 | 0.00 | 0.00 | 55 | 1021.9 |
| 20260506181346 | 70 | 275 | 2.0 | 8.0 | 0.00 | 0.00 | 0.00 | 56 | 1021.7 |
| 20260506180843 | 69 | 227 | 1.0 | 3.0 | 0.00 | 0.00 | 0.00 | 57 | 1021.9 |
| 20260506180339 | 69 | 80 | 1.0 | 2.0 | 0.00 | 0.00 | 0.00 | 57 | 1022.0 |
| 20260506175836 | 69 | 129 | 1.0 | 4.0 | 0.00 | 0.00 | 0.00 | 58 | 1022.0 |
| 20260506175333 | 68 | 133 | 0.0 | 3.0 | 0.00 | 0.00 | 0.00 | 57 | 1021.9 |
| 20260506174830 | 68 | 265 | 3.0 | 4.0 | 0.00 | 0.00 | 0.00 | 57 | 1021.9 |
| 20260506174327 | 68 | 199 | 0.0 | 3.0 | 0.00 | 0.00 | 0.00 | 57 | 1021.7 |
| 20260506173824 | 69 | 155 | 1.0 | 3.0 | 0.00 | 0.00 | 0.00 | 57 | 1022.0 |
| 20260506173321 | 67 | 135 | 1.0 | 6.0 | 0.00 | 0.00 | 0.00 | 59 | 1021.8 |
| 20260506172818 | 68 | 249 | 1.0 | 8.0 | 0.00 | 0.00 | 0.00 | 58 | 1021.9 |
| 20260506172315 | 68 | 65 | 1.0 | 3.0 | 0.00 | 0.00 | 0.00 | 59 | 1022.1 |
| 20260506171812 | 68 | 234 | 4.0 | 4.0 | 0.00 | 0.00 | 0.00 | 57 | 1022.0 |
| 20260506171309 | 66 | 133 | 0.0 | 3.0 | 0.00 | 0.00 | 0.00 | 60 | 1022.1 |
| 20260506170807 | 67 | 23 | 1.0 | 2.0 | 0.00 | 0.00 | 0.00 | 60 | 1021.8 |
| 20260506170303 | 66 | 93 | 0.0 | 3.0 | 0.00 | 0.00 | 0.00 | 62 | 1021.9 |
| 20260506165802 | 67 | 148 | 2.0 | 3.0 | 0.00 | 0.00 | 0.00 | 58 | 1022.0 |
| 20260506165259 | 67 | 164 | 1.0 | 2.0 | 0.00 | 0.00 | 0.00 | 61 | 1021.9 |
| 20260506164755 | 67 | 221 | 2.0 | 3.0 | 0.00 | 0.00 | 0.00 | 59 | 1021.9 |
| 20260506164252 | 67 | 194 | 1.0 | 7.0 | 0.00 | 0.00 | 0.00 | 60 | 1021.9 |
| 20260506163749 | 66 | 37 | 1.0 | 3.0 | 0.00 | 0.00 | 0.00 | 59 | 1022.0 |
| 20260506163244 | 66 | 163 | 0.0 | 3.0 | 0.00 | 0.00 | 0.00 | 58 | 1021.8 |
| 20260506162740 | 66 | 85 | 1.0 | 3.0 | 0.00 | 0.00 | 0.00 | 61 | 1021.9 |
| 20260506162238 | 65 | 210 | 0.0 | 0.0 | 0.00 | 0.00 | 0.00 | 62 | 1022.0 |
| 20260506161730 | 65 | 76 | 1.0 | 2.0 | 0.00 | 0.00 | 0.00 | 62 | 1021.9 |
| 20260506161227 | 65 | 284 | 1.0 | 3.0 | 0.00 | 0.00 | 0.00 | 63 | 1022.0 |
| 20260506160724 | 64 | 90 | 0.0 | 1.0 | 0.00 | 0.00 | 0.00 | 65 | 1021.8 |
| 20260506160221 | 64 | 100 | 0.0 | 3.0 | 0.00 | 0.00 | 0.00 | 64 | 1021.8 |
| 20260506155719 | 64 | 211 | 1.0 | 2.0 | 0.00 | 0.00 | 0.00 | 64 | 1021.9 |
| 20260506155216 | 63 | 157 | 0.0 | 2.0 | 0.00 | 0.00 | 0.00 | 68 | 1022.1 |
| 20260506153318 | 63 | 145 | 1.0 | 2.0 | 0.00 | 0.00 | 0.00 | 67 | 1021.7 |
| 20260506152815 | 62 | 148 | 1.0 | 2.0 | 0.00 | 0.00 | 0.00 | 69 | 1021.9 |
| 20260506152312 | 62 | 123 | 0.0 | 1.0 | 0.00 | 0.00 | 0.00 | 70 | 1021.8 |
| 20260506151810 | 60 | 124 | 1.0 | 2.0 | 0.00 | 0.00 | 0.00 | 74 | 1021.7 |
| 20260506151307 | 60 | 92 | 2.0 | 3.0 | 0.00 | 0.00 | 0.00 | 74 | 1022.0 |
| 20260506150804 | 60 | 124 | 1.0 | 2.0 | 0.00 | 0.00 | 0.00 | 74 | 1021.9 |
| 20260506150304 | 59 | 96 | 2.0 | 4.0 | 0.00 | 0.00 | 0.00 | 77 | 1021.9 |
| 20260506145757 | 59 | 88 | 2.0 | 2.0 | 0.00 | 0.00 | 0.00 | 75 | 1021.7 |
| 20260506145254 | 58 | 94 | 3.0 | 4.0 | 0.00 | 0.00 | 0.00 | 77 | 1021.8 |
| 20260506144752 | 58 | 112 | 0.0 | 2.0 | 0.00 | 0.00 | 0.00 | 78 | 1021.8 |
| 20260506144248 | 57 | 123 | 1.0 | 2.0 | 0.00 | 0.00 | 0.00 | 80 | 1021.8 |
| 20260506143746 | 57 | 115 | 0.0 | 1.0 | 0.00 | 0.00 | 0.00 | 81 | 1021.9 |
| 20260506143243 | 57 | 117 | 0.0 | 0.0 | 0.00 | 0.00 | 0.00 | 82 | 1021.9 |
| 20260506142742 | 56 | 92 | 2.0 | 3.0 | 0.00 | 0.00 | 0.00 | 82 | 1021.7 |
| 20260506142239 | 55 | 124 | 0.0 | 0.0 | 0.00 | 0.00 | 0.00 | 83 | 1021.8 |
| 20260506141738 | 54 | 96 | 0.0 | 0.0 | 0.00 | 0.00 | 0.00 | 85 | 1021.7 |
| 20260506141235 | 53 | 99 | 0.0 | 0.0 | 0.00 | 0.00 | 0.00 | 87 | 1021.6 |
| 20260506140732 | 53 | 94 | 1.0 | 2.0 | 0.00 | 0.00 | 0.00 | 87 | 1021.8 |
| 20260506140229 | 53 | 124 | 0.0 | 0.0 | 0.00 | 0.00 | 0.00 | 88 | 1021.7 |
| 20260506135726 | 52 | 125 | 0.0 | 0.0 | 0.00 | 0.00 | 0.00 | 88 | 1021.8 |
| 20260506135222 | 51 | 118 | 0.0 | 0.0 | 0.00 | 0.00 | 0.00 | 88 | 1021.6 |
| 20260506134719 | 51 | 118 | 0.0 | 0.0 | 0.00 | 0.00 | 0.00 | 90 | 1021.4 |
| 20260506134215 | 50 | 117 | 0.0 | 0.0 | 0.00 | 0.00 | 0.00 | 92 | 1021.8 |
| 20260506133713 | 50 | 126 | 0.0 | 0.0 | 0.00 | 0.00 | 0.00 | 93 | 1021.6 |
| 20260506133209 | 49 | 130 | 0.0 | 0.0 | 0.00 | 0.00 | 0.00 | 94 | 1021.5 |
| 20260506132707 | 48 | 130 | 0.0 | 0.0 | 0.00 | 0.00 | 0.00 | 94 | 1021.6 |
| 20260506132203 | 48 | 130 | 0.0 | 0.0 | 0.00 | 0.00 | 0.00 | 94 | 1021.4 |
| 20260506131701 | 48 | 130 | 0.0 | 0.0 | 0.00 | 0.00 | 0.00 | 95 | 1021.6 |
| 20260506131157 | 48 | 130 | 0.0 | 0.0 | 0.00 | 0.00 | 0.00 | 95 | 1021.6 |
| 20260506130654 | 48 | 130 | 0.0 | 0.0 | 0.00 | 0.00 | 0.00 | 94 | 1021.4 |
| 20260506130151 | 48 | 130 | 0.0 | 0.0 | 0.00 | 0.00 | 0.00 | 94 | 1021.5 |
| 20260506125649 | 48 | 130 | 0.0 | 0.0 | 0.00 | 0.00 | 0.00 | 94 | 1021.4 |
| 20260506125147 | 48 | 130 | 0.0 | 0.0 | 0.00 | 0.00 | 0.00 | 94 | 1021.5 |
| 20260506124645 | 48 | 130 | 0.0 | 0.0 | 0.00 | 0.00 | 0.00 | 94 | 1021.2 |
| 20260506124142 | 48 | 130 | 0.0 | 0.0 | 0.00 | 0.00 | 0.00 | 94 | 1021.0 |
| 20260506123639 | 48 | 128 | 0.0 | 0.0 | 0.00 | 0.00 | 0.00 | 93 | 1021.4 |
| 20260506123138 | 49 | 128 | 0.0 | 0.0 | 0.00 | 0.00 | 0.00 | 93 | 1021.1 |
| 20260506122635 | 49 | 146 | 0.0 | 0.0 | 0.00 | 0.00 | 0.00 | 93 | 1020.9 |
| 20260506122132 | 49 | 154 | 0.0 | 0.0 | 0.00 | 0.00 | 0.00 | 93 | 1021.0 |
| 20260506121629 | 49 | 138 | 0.0 | 0.0 | 0.00 | 0.00 | 0.00 | 93 | 1020.9 |
| 20260506121126 | 49 | 138 | 0.0 | 0.0 | 0.00 | 0.00 | 0.00 | 93 | 1020.9 |
| 20260506120624 | 49 | 141 | 0.0 | 0.0 | 0.00 | 0.00 | 0.00 | 93 | 1021.1 |
| 20260506120121 | 49 | 137 | 0.0 | 0.0 | 0.00 | 0.00 | 0.00 | 93 | 1021.0 |
| 20260506115620 | 49 | 132 | 0.0 | 0.0 | 0.00 | 0.00 | 0.00 | 93 | 1021.0 |
| 20260506115117 | 49 | 148 | 0.0 | 0.0 | 0.00 | 0.00 | 0.00 | 93 | 1020.9 |
| 20260506114614 | 49 | 134 | 0.0 | 1.0 | 0.00 | 0.00 | 0.00 | 94 | 1020.9 |
| 20260506114112 | 49 | 121 | 0.0 | 0.0 | 0.00 | 0.00 | 0.00 | 94 | 1020.8 |
| 20260506113610 | 49 | 105 | 0.0 | 0.0 | 0.00 | 0.00 | 0.00 | 94 | 1021.0 |
| 20260506113107 | 49 | 105 | 0.0 | 0.0 | 0.00 | 0.00 | 0.00 | 94 | 1020.8 |
| 20260506112604 | 49 | 104 | 0.0 | 0.0 | 0.00 | 0.00 | 0.00 | 94 | 1021.0 |
| 20260506112102 | 49 | 104 | 0.0 | 0.0 | 0.00 | 0.00 | 0.00 | 94 | 1021.1 |
| 20260506111559 | 49 | 103 | 0.0 | 0.0 | 0.00 | 0.00 | 0.00 | 93 | 1020.9 |
| 20260506111056 | 49 | 103 | 0.0 | 0.0 | 0.00 | 0.00 | 0.00 | 93 | 1021.0 |
| 20260506110554 | 49 | 102 | 0.0 | 0.0 | 0.00 | 0.00 | 0.00 | 93 | 1020.7 |
| 20260506110051 | 49 | 102 | 0.0 | 0.0 | 0.00 | 0.00 | 0.00 | 93 | 1020.7 |
| 20260506105547 | 49 | 101 | 0.0 | 1.0 | 0.00 | 0.00 | 0.00 | 93 | 1020.9 |
| 20260506105044 | 49 | 123 | 0.0 | 0.0 | 0.00 | 0.00 | 0.00 | 93 | 1020.8 |
| 20260506104542 | 49 | 133 | 0.0 | 0.0 | 0.00 | 0.00 | 0.00 | 94 | 1020.5 |
| 20260506104040 | 49 | 125 | 0.0 | 0.0 | 0.00 | 0.00 | 0.00 | 94 | 1020.8 |
| 20260506103537 | 49 | 136 | 0.0 | 0.0 | 0.00 | 0.00 | 0.00 | 94 | 1020.8 |
| 20260506103033 | 49 | 145 | 0.0 | 0.0 | 0.00 | 0.00 | 0.00 | 94 | 1020.8 |
| 20260506102532 | 49 | 145 | 0.0 | 0.0 | 0.00 | 0.00 | 0.00 | 95 | 1021.0 |
| 20260506102029 | 49 | 145 | 0.0 | 0.0 | 0.00 | 0.00 | 0.00 | 95 | 1020.9 |
| 20260506101525 | 49 | 145 | 0.0 | 0.0 | 0.00 | 0.00 | 0.00 | 95 | 1020.8 |
| 20260506101023 | 49 | 145 | 0.0 | 0.0 | 0.00 | 0.00 | 0.00 | 95 | 1020.8 |
| 20260506100521 | 48 | 145 | 0.0 | 0.0 | 0.00 | 0.00 | 0.00 | 95 | 1020.9 |
| 20260506100019 | 48 | 145 | 0.0 | 0.0 | 0.00 | 0.00 | 0.00 | 95 | 1020.9 |
| 20260506095517 | 48 | 145 | 0.0 | 0.0 | 0.00 | 0.00 | 0.00 | 95 | 1021.1 |
| 20260506095013 | 48 | 146 | 0.0 | 0.0 | 0.00 | 0.00 | 0.00 | 95 | 1021.0 |
| 20260506094511 | 48 | 146 | 0.0 | 0.0 | 0.00 | 0.00 | 0.00 | 95 | 1021.2 |
| 20260506094009 | 48 | 146 | 0.0 | 0.0 | 0.00 | 0.00 | 0.00 | 95 | 1021.2 |
| 20260506093507 | 48 | 146 | 0.0 | 0.0 | 0.00 | 0.00 | 0.00 | 95 | 1021.1 |
| 20260506093004 | 48 | 146 | 0.0 | 0.0 | 0.00 | 0.00 | 0.00 | 95 | 1021.0 |
| 20260506092502 | 49 | 146 | 0.0 | 0.0 | 0.00 | 0.00 | 0.00 | 95 | 1021.1 |
| 20260506091958 | 49 | 146 | 0.0 | 0.0 | 0.00 | 0.00 | 0.00 | 95 | 1021.1 |
| 20260506091457 | 49 | 146 | 0.0 | 0.0 | 0.00 | 0.00 | 0.00 | 95 | 1021.2 |
| 20260506090953 | 49 | 146 | 0.0 | 0.0 | 0.00 | 0.00 | 0.00 | 95 | 1021.2 |
| 20260506090451 | 49 | 145 | 0.0 | 0.0 | 0.00 | 0.00 | 0.00 | 95 | 1021.3 |
| 20260506085947 | 49 | 145 | 0.0 | 0.0 | 0.00 | 0.00 | 0.00 | 95 | 1021.2 |
| 20260506085444 | 49 | 145 | 0.0 | 0.0 | 0.00 | 0.00 | 0.00 | 95 | 1021.3 |
| 20260506084941 | 49 | 145 | 0.0 | 0.0 | 0.00 | 0.00 | 0.00 | 95 | 1021.3 |
| 20260506084437 | 49 | 145 | 0.0 | 0.0 | 0.00 | 0.00 | 0.00 | 95 | 1021.3 |
| 20260506083933 | 49 | 145 | 0.0 | 0.0 | 0.00 | 0.00 | 0.00 | 95 | 1021.4 |
| 20260506083431 | 49 | 145 | 0.0 | 0.0 | 0.00 | 0.00 | 0.00 | 95 | 1021.4 |
| 20260506082928 | 49 | 145 | 0.0 | 0.0 | 0.00 | 0.00 | 0.00 | 95 | 1021.5 |
| 20260506082425 | 49 | 145 | 0.0 | 0.0 | 0.00 | 0.00 | 0.00 | 94 | 1021.6 |
| 20260506081921 | 49 | 145 | 0.0 | 0.0 | 0.00 | 0.00 | 0.00 | 94 | 1021.5 |
| 20260506081420 | 50 | 145 | 0.0 | 0.0 | 0.00 | 0.00 | 0.00 | 94 | 1021.4 |
| 20260506080916 | 49 | 145 | 0.0 | 0.0 | 0.00 | 0.00 | 0.00 | 94 | 1021.4 |
| 20260506080413 | 49 | 145 | 0.0 | 0.0 | 0.00 | 0.00 | 0.00 | 94 | 1021.6 |
| 20260506073357 | 50 | 145 | 0.0 | 0.0 | 0.00 | 0.00 | 0.00 | 93 | 1021.6 |
| 20260506072854 | 50 | 145 | 0.0 | 0.0 | 0.00 | 0.00 | 0.00 | 93 | 1021.5 |
| 20260506072351 | 50 | 145 | 0.0 | 0.0 | 0.00 | 0.00 | 0.00 | 94 | 1021.4 |
| 20260506071849 | 51 | 145 | 0.0 | 0.0 | 0.00 | 0.00 | 0.00 | 94 | 1021.5 |
| 20260506071347 | 50 | 145 | 0.0 | 0.0 | 0.00 | 0.00 | 0.00 | 93 | 1021.3 |
| 20260506070843 | 50 | 145 | 0.0 | 0.0 | 0.00 | 0.00 | 0.00 | 93 | 1021.3 |
| 20260506070341 | 51 | 145 | 0.0 | 0.0 | 0.00 | 0.00 | 0.00 | 93 | 1021.2 |
| 20260506062318 | 51 | 145 | 0.0 | 0.0 | 0.00 | 0.00 | 0.00 | 92 | 1020.8 |
| 20260506061814 | 51 | 145 | 0.0 | 0.0 | 0.00 | 0.00 | 0.00 | 91 | 1020.8 |
| 20260506061310 | 52 | 145 | 0.0 | 0.0 | 0.00 | 0.00 | 0.00 | 91 | 1020.8 |
| 20260506060809 | 52 | 145 | 0.0 | 0.0 | 0.00 | 0.00 | 0.00 | 90 | 1020.8 |
| 20260506060307 | 52 | 145 | 0.0 | 0.0 | 0.00 | 0.00 | 0.00 | 90 | 1020.8 |
| 20260506051238 | 53 | 163 | 0.0 | 0.0 | 0.00 | 0.00 | 0.00 | 89 | 1020.4 |
| 20260506050736 | 53 | 163 | 0.0 | 0.0 | 0.00 | 0.00 | 0.00 | 88 | 1020.7 |
| 20260506050233 | 53 | 164 | 0.0 | 0.0 | 0.00 | 0.00 | 0.00 | 88 | 1020.5 |
| 20260506044723 | 54 | 140 | 0.0 | 0.0 | 0.00 | 0.00 | 0.00 | 87 | 1020.0 |
| 20260506044221 | 54 | 178 | 0.0 | 1.0 | 0.00 | 0.00 | 0.00 | 86 | 1020.0 |
| 20260506043718 | 54 | 219 | 0.0 | 2.0 | 0.00 | 0.00 | 0.00 | 87 | 1020.0 |
| 20260506043216 | 54 | 211 | 0.0 | 2.0 | 0.00 | 0.00 | 0.00 | 87 | 1020.0 |
| 20260506042714 | 54 | 186 | 2.0 | 2.0 | 0.00 | 0.00 | 0.00 | 87 | 1019.8 |
| 20260506042213 | 54 | 245 | 0.0 | 1.0 | 0.00 | 0.00 | 0.00 | 87 | 1019.8 |
| 20260506041711 | 54 | 247 | 1.0 | 2.0 | 0.00 | 0.00 | 0.00 | 87 | 1019.8 |
| 20260506041207 | 54 | 277 | 1.0 | 2.0 | 0.00 | 0.00 | 0.00 | 87 | 1019.8 |
| 20260506040705 | 54 | 239 | 1.0 | 2.0 | 0.00 | 0.00 | 0.00 | 86 | 1019.8 |
| 20260506040202 | 54 | 218 | 2.0 | 2.0 | 0.00 | 0.00 | 0.00 | 86 | 1019.4 |
| 20260506035658 | 55 | 220 | 0.0 | 2.0 | 0.00 | 0.00 | 0.00 | 86 | 1019.4 |
| 20260506035155 | 55 | 220 | 1.0 | 2.0 | 0.00 | 0.00 | 0.00 | 85 | 1019.3 |
| 20260506034651 | 55 | 217 | 0.0 | 2.0 | 0.00 | 0.00 | 0.00 | 85 | 1019.1 |
| 20260506034149 | 55 | 217 | 0.0 | 1.0 | 0.00 | 0.00 | 0.00 | 84 | 1019.1 |
| 20260506033646 | 55 | 213 | 1.0 | 2.0 | 0.00 | 0.00 | 0.00 | 83 | 1019.3 |
| 20260506033143 | 55 | 211 | 1.0 | 1.0 | 0.00 | 0.00 | 0.00 | 82 | 1019.0 |
| 20260506032640 | 56 | 260 | 0.0 | 2.0 | 0.00 | 0.00 | 0.00 | 82 | 1019.3 |
| 20260506032137 | 56 | 205 | 1.0 | 2.0 | 0.00 | 0.00 | 0.00 | 81 | 1019.1 |
| 20260506031634 | 56 | 181 | 0.0 | 1.0 | 0.00 | 0.00 | 0.00 | 80 | 1019.0 |
| 20260506031131 | 56 | 178 | 0.0 | 1.0 | 0.00 | 0.00 | 0.00 | 80 | 1018.6 |
| 20260506030630 | 57 | 178 | 0.0 | 0.0 | 0.00 | 0.00 | 0.00 | 79 | 1018.6 |
| 20260506030126 | 57 | 184 | 0.0 | 1.0 | 0.00 | 0.00 | 0.00 | 78 | 1018.8 |
| 20260506025623 | 57 | 179 | 0.0 | 1.0 | 0.00 | 0.00 | 0.00 | 78 | 1018.5 |
| 20260506025118 | 57 | 170 | 0.0 | 0.0 | 0.00 | 0.00 | 0.00 | 77 | 1018.7 |
| 20260506024616 | 58 | 167 | 1.0 | 3.0 | 0.00 | 0.00 | 0.00 | 76 | 1018.6 |
| 20260506024112 | 58 | 181 | 0.0 | 0.0 | 0.00 | 0.00 | 0.00 | 75 | 1018.4 |
| 20260506023608 | 58 | 338 | 0.0 | 2.0 | 0.00 | 0.00 | 0.00 | 75 | 1018.4 |
| 20260506023106 | 58 | 246 | 2.0 | 2.0 | 0.00 | 0.00 | 0.00 | 75 | 1018.2 |
| 20260506022603 | 58 | 120 | 1.0 | 2.0 | 0.00 | 0.00 | 0.00 | 75 | 1018.1 |
| 20260506022101 | 58 | 285 | 1.0 | 2.0 | 0.00 | 0.00 | 0.00 | 75 | 1018.4 |
| 20260506021558 | 58 | 233 | 2.0 | 2.0 | 0.00 | 0.00 | 0.00 | 75 | 1018.2 |
| 20260506021055 | 58 | 197 | 1.0 | 2.0 | 0.00 | 0.00 | 0.00 | 75 | 1018.2 |
| 20260506020553 | 58 | 183 | 0.0 | 3.0 | 0.00 | 0.00 | 0.00 | 75 | 1018.1 |
| 20260506020050 | 58 | 174 | 0.0 | 4.0 | 0.00 | 0.00 | 0.00 | 75 | 1018.1 |
| 20260506015548 | 58 | 158 | 2.0 | 4.0 | 0.00 | 0.00 | 0.00 | 75 | 1018.0 |
| 20260506015044 | 59 | 155 | 2.0 | 3.0 | 0.00 | 0.00 | 0.00 | 74 | 1018.2 |
| 20260506014542 | 59 | 162 | 0.0 | 0.0 | 0.00 | 0.00 | 0.00 | 74 | 1018.0 |
| 20260506014037 | 59 | 264 | 1.0 | 3.0 | 0.00 | 0.00 | 0.00 | 75 | 1017.9 |
| 20260506013536 | 59 | 194 | 5.0 | 7.0 | 0.00 | 0.00 | 0.00 | 74 | 1018.0 |
| 20260506013033 | 59 | 309 | 1.0 | 2.0 | 0.00 | 0.00 | 0.00 | 73 | 1017.9 |
| 20260506012529 | 60 | 172 | 2.0 | 6.0 | 0.00 | 0.00 | 0.00 | 72 | 1018.0 |
| 20260506012026 | 60 | 172 | 5.0 | 7.0 | 0.00 | 0.00 | 0.00 | 71 | 1018.1 |
| 20260506011524 | 61 | 109 | 1.0 | 6.0 | 0.00 | 0.00 | 0.00 | 71 | 1018.1 |
| 20260506011019 | 60 | 201 | 1.0 | 6.0 | 0.00 | 0.00 | 0.00 | 72 | 1018.0 |
| 20260506010514 | 60 | 256 | 4.0 | 8.0 | 0.00 | 0.00 | 0.00 | 72 | 1018.0 |
| 20260506010009 | 60 | 184 | 1.0 | 7.0 | 0.00 | 0.00 | 0.00 | 71 | 1018.1 |
| 20260506005507 | 59 | 231 | 2.0 | 11.0 | 0.00 | 0.00 | 0.00 | 72 | 1017.8 |
| 20260506005002 | 59 | 166 | 1.0 | 8.0 | 0.00 | 0.00 | 0.00 | 71 | 1017.8 |
| 20260506004500 | 59 | 262 | 0.0 | 3.0 | 0.00 | 0.00 | 0.00 | 71 | 1018.0 |
| 20260506003956 | 59 | 166 | 3.0 | 6.0 | 0.00 | 0.00 | 0.00 | 70 | 1017.9 |
| 20260506003453 | 59 | 152 | 1.0 | 6.0 | 0.00 | 0.00 | 0.00 | 71 | 1017.9 |
| 20260506002949 | 59 | 154 | 1.0 | 9.0 | 0.00 | 0.00 | 0.00 | 73 | 1017.9 |
| 20260506002445 | 60 | 103 | 4.0 | 8.0 | 0.00 | 0.00 | 0.00 | 73 | 1017.7 |
| 20260506001940 | 61 | 168 | 2.0 | 7.0 | 0.00 | 0.00 | 0.00 | 73 | 1017.9 |
| 20260506001438 | 61 | 205 | 2.0 | 7.0 | 0.00 | 0.00 | 0.00 | 74 | 1017.6 |
| 20260506000935 | 61 | 176 | 6.0 | 14.0 | 0.00 | 0.00 | 0.00 | 73 | 1017.9 |
| 20260506000432 | 62 | 179 | 4.0 | 9.0 | 0.00 | 0.00 | 0.00 | 70 | 1017.8 |
| 20260505235929 | 62 | 156 | 4.0 | 13.0 | 0.00 | 0.00 | 0.00 | 69 | 1017.7 |
| 20260505235428 | 62 | 208 | 3.0 | 7.0 | 0.00 | 0.00 | 0.00 | 68 | 1017.6 |
| 20260505234924 | 62 | 202 | 4.0 | 15.0 | 0.00 | 0.00 | 0.00 | 66 | 1017.6 |
| 20260505234421 | 64 | 198 | 6.0 | 9.0 | 0.00 | 0.00 | 0.00 | 62 | 1017.6 |
| 20260505233918 | 64 | 218 | 4.0 | 6.0 | 0.00 | 0.00 | 0.00 | 61 | 1017.5 |
| 20260505233416 | 63 | 253 | 5.0 | 13.0 | 0.00 | 0.00 | 0.00 | 62 | 1017.9 |
| 20260505232913 | 63 | 219 | 2.0 | 8.0 | 0.00 | 0.00 | 0.00 | 62 | 1017.7 |
| 20260505232411 | 63 | 188 | 6.0 | 10.0 | 0.00 | 0.00 | 0.00 | 63 | 1017.7 |
| 20260505231907 | 64 | 190 | 5.0 | 10.0 | 0.00 | 0.00 | 0.00 | 64 | 1017.6 |
| 20260505231405 | 63 | 179 | 5.0 | 6.0 | 0.00 | 0.00 | 0.00 | 62 | 1017.6 |
| 20260505230903 | 64 | 173 | 5.0 | 7.0 | 0.00 | 0.00 | 0.00 | 61 | 1017.6 |
| 20260505230400 | 64 | 170 | 3.0 | 8.0 | 0.00 | 0.00 | 0.00 | 60 | 1017.5 |
| 20260505225856 | 64 | 228 | 3.0 | 4.0 | 0.00 | 0.00 | 0.00 | 62 | 1017.6 |
| 20260505225354 | 64 | 271 | 4.0 | 8.0 | 0.00 | 0.00 | 0.00 | 62 | 1017.7 |
| 20260505224849 | 64 | 41 | 2.0 | 6.0 | 0.00 | 0.00 | 0.00 | 61 | 1017.6 |
| 20260505224347 | 64 | 245 | 6.0 | 10.0 | 0.00 | 0.00 | 0.00 | 60 | 1018.0 |
| 20260505223844 | 66 | 314 | 4.0 | 9.0 | 0.00 | 0.00 | 0.00 | 56 | 1017.8 |
| 20260505223341 | 66 | 183 | 9.0 | 11.0 | 0.00 | 0.00 | 0.00 | 56 | 1017.7 |
| 20260505222836 | 68 | 331 | 2.0 | 4.0 | 0.00 | 0.00 | 0.00 | 54 | 1017.8 |
| 20260505222333 | 66 | 195 | 2.0 | 6.0 | 0.00 | 0.00 | 0.00 | 58 | 1017.9 |
| 20260505221830 | 65 | 274 | 7.0 | 8.0 | 0.00 | 0.00 | 0.00 | 58 | 1018.0 |
| 20260505221327 | 65 | 146 | 4.0 | 8.0 | 0.00 | 0.00 | 0.00 | 59 | 1017.9 |
| 20260505220824 | 65 | 169 | 4.0 | 9.0 | 0.00 | 0.00 | 0.00 | 60 | 1017.7 |
| 20260505220321 | 66 | 263 | 8.0 | 11.0 | 0.00 | 0.00 | 0.00 | 58 | 1017.9 |
| 20260505215819 | 65 | 272 | 2.0 | 7.0 | 0.00 | 0.00 | 0.00 | 61 | 1018.0 |
| 20260505215316 | 66 | 188 | 4.0 | 14.0 | 0.00 | 0.00 | 0.00 | 57 | 1018.0 |
| 20260505214814 | 65 | 188 | 3.0 | 8.0 | 0.00 | 0.00 | 0.00 | 56 | 1018.1 |
| 20260505214311 | 66 | 209 | 5.0 | 10.0 | 0.00 | 0.00 | 0.00 | 58 | 1018.2 |
| 20260505213808 | 65 | 248 | 4.0 | 14.0 | 0.00 | 0.00 | 0.00 | 57 | 1018.2 |
| 20260505213306 | 66 | 219 | 6.0 | 7.0 | 0.00 | 0.00 | 0.00 | 56 | 1018.3 |
| 20260505212801 | 68 | 253 | 7.0 | 11.0 | 0.00 | 0.00 | 0.00 | 54 | 1018.0 |
| 20260505212259 | 66 | 274 | 1.0 | 9.0 | 0.00 | 0.00 | 0.00 | 55 | 1018.3 |
| 20260505211755 | 67 | 224 | 6.0 | 16.0 | 0.00 | 0.00 | 0.00 | 54 | 1018.0 |
| 20260505211253 | 67 | 183 | 5.0 | 8.0 | 0.00 | 0.00 | 0.00 | 53 | 1018.0 |
| 20260505210749 | 67 | 211 | 5.0 | 11.0 | 0.00 | 0.00 | 0.00 | 52 | 1018.0 |
| 20260505210246 | 68 | 310 | 4.0 | 8.0 | 0.00 | 0.00 | 0.00 | 53 | 1018.2 |
| 20260505205743 | 67 | 322 | 3.0 | 8.0 | 0.00 | 0.00 | 0.00 | 52 | 1018.2 |
| 20260505205242 | 66 | 233 | 7.0 | 14.0 | 0.00 | 0.00 | 0.00 | 53 | 1018.1 |
| 20260505204738 | 66 | 213 | 4.0 | 14.0 | 0.00 | 0.00 | 0.00 | 54 | 1018.2 |
| 20260505204236 | 66 | 241 | 4.0 | 11.0 | 0.00 | 0.00 | 0.00 | 55 | 1018.0 |
| 20260505203733 | 66 | 163 | 1.0 | 6.0 | 0.00 | 0.00 | 0.00 | 54 | 1018.1 |
| 20260505203230 | 66 | 163 | 4.0 | 9.0 | 0.00 | 0.00 | 0.00 | 53 | 1018.2 |
| 20260505202725 | 67 | 278 | 4.0 | 7.0 | 0.00 | 0.00 | 0.00 | 52 | 1018.1 |
| 20260505202222 | 67 | 180 | 3.0 | 7.0 | 0.00 | 0.00 | 0.00 | 52 | 1018.1 |
| 20260505201718 | 68 | 193 | 3.0 | 4.0 | 0.00 | 0.00 | 0.00 | 50 | 1018.0 |
| 20260505201216 | 68 | 182 | 3.0 | 4.0 | 0.00 | 0.00 | 0.00 | 50 | 1017.8 |
| 20260505200714 | 68 | 136 | 3.0 | 7.0 | 0.00 | 0.00 | 0.00 | 50 | 1018.2 |
| 20260505200211 | 67 | 162 | 2.0 | 8.0 | 0.00 | 0.00 | 0.00 | 54 | 1018.0 |